Year,Month,Day,Hour,Minute,Value (Times are PST for temperature in C)
2012,04,26,00,03,10.90
2012,04,26,00,04,10.90
2012,04,26,00,05,10.90
2012,04,26,00,06,10.90
2012,04,26,00,07,10.90
2012,04,26,00,09,10.90
2012,04,26,00,10,10.90
2012,04,26,00,11,10.90
2012,04,26,00,12,10.90
2012,04,26,00,13,10.90
2012,04,26,00,15,10.90
2012,04,26,00,16,10.90
2012,04,26,00,17,10.90
2012,04,26,00,18,10.90
2012,04,26,00,20,10.90
2012,04,26,00,21,10.90
2012,04,26,00,22,10.80
2012,04,26,00,24,10.80
2012,04,26,00,25,10.80
2012,04,26,00,26,10.80
2012,04,26,00,27,10.80
2012,04,26,00,29,10.80
2012,04,26,00,30,10.80
2012,04,26,00,31,10.80
2012,04,26,00,32,10.80
2012,04,26,00,33,10.70
2012,04,26,00,35,10.70
2012,04,26,00,36,10.70
2012,04,26,00,37,10.70
2012,04,26,00,38,10.60
2012,04,26,00,40,10.60
2012,04,26,00,41,10.50
2012,04,26,00,42,10.50
2012,04,26,00,43,10.40
2012,04,26,00,45,10.40
2012,04,26,00,46,10.40
2012,04,26,00,47,10.40
2012,04,26,00,48,10.30
2012,04,26,00,50,10.30
2012,04,26,00,51,10.30
2012,04,26,00,52,10.30
2012,04,26,00,53,10.30
2012,04,26,00,54,10.30
2012,04,26,00,55,10.20
2012,04,26,00,56,10.20
2012,04,26,00,57,10.20
2012,04,26,00,59,10.20
2012,04,26,01,00,10.20
2012,04,26,01,01,10.20
2012,04,26,01,02,10.10
2012,04,26,01,04,10.10
2012,04,26,01,05,10.10
2012,04,26,01,06,10.10
2012,04,26,01,07,10.10
2012,04,26,01,09,10.10
2012,04,26,01,10,10.10
2012,04,26,01,11,10.10
2012,04,26,01,12,10.10
2012,04,26,01,14,10.10
2012,04,26,01,15,10.00
2012,04,26,01,16,10.00
2012,04,26,01,17,10.00
2012,04,26,01,19,10.00
2012,04,26,01,20,10.00
2012,04,26,01,21,10.00
2012,04,26,01,22,9.90
2012,04,26,01,24,9.90
2012,04,26,01,25,9.90
2012,04,26,01,26,9.90
2012,04,26,01,27,9.90
2012,04,26,01,28,9.80
2012,04,26,01,30,9.80
2012,04,26,01,31,9.80
2012,04,26,01,32,9.80
2012,04,26,01,34,9.70
2012,04,26,01,35,9.70
2012,04,26,01,36,9.70
2012,04,26,01,37,9.70
2012,04,26,01,38,9.70
2012,04,26,01,40,9.70
2012,04,26,01,41,9.70
2012,04,26,01,42,9.70
2012,04,26,01,44,9.60
2012,04,26,01,45,9.60
2012,04,26,01,46,9.60
2012,04,26,01,47,9.60
2012,04,26,01,48,9.60
2012,04,26,01,50,9.60
2012,04,26,01,51,9.60
2012,04,26,01,52,9.60
2012,04,26,01,53,9.60
2012,04,26,01,54,9.60
2012,04,26,01,56,9.60
2012,04,26,01,57,9.60
2012,04,26,01,58,9.60
2012,04,26,01,59,9.60
2012,04,26,02,00,9.60
2012,04,26,02,01,9.60
2012,04,26,02,03,9.60
2012,04,26,02,04,9.60
2012,04,26,02,05,9.60
2012,04,26,02,06,9.60
2012,04,26,02,08,9.60
2012,04,26,02,09,9.60
2012,04,26,02,10,9.50
2012,04,26,02,11,9.50
2012,04,26,02,13,9.50
2012,04,26,02,14,9.50
2012,04,26,02,15,9.50
2012,04,26,02,16,9.50
2012,04,26,02,18,9.50
2012,04,26,02,19,9.50
2012,04,26,02,20,9.40
2012,04,26,02,21,9.40
2012,04,26,02,22,9.40
2012,04,26,02,24,9.40
2012,04,26,02,25,9.40
2012,04,26,02,26,9.40
2012,04,26,02,27,9.40
2012,04,26,02,29,9.40
2012,04,26,02,30,9.40
2012,04,26,02,31,9.40
2012,04,26,02,32,9.30
2012,04,26,02,33,9.40
2012,04,26,02,35,9.30
2012,04,26,02,36,9.30
2012,04,26,02,37,9.30
2012,04,26,02,38,9.40
2012,04,26,02,39,9.40
2012,04,26,02,40,9.40
2012,04,26,02,41,9.40
2012,04,26,02,42,9.40
2012,04,26,02,44,9.40
2012,04,26,02,45,9.40
2012,04,26,02,46,9.40
2012,04,26,02,47,9.40
2012,04,26,02,48,9.40
2012,04,26,02,50,9.40
2012,04,26,02,51,9.40
2012,04,26,02,52,9.40
2012,04,26,02,54,9.40
2012,04,26,02,55,9.40
2012,04,26,02,56,9.40
2012,04,26,02,57,9.40
2012,04,26,02,58,9.40
2012,04,26,02,59,9.40
2012,04,26,03,00,9.40
2012,04,26,03,01,9.40
2012,04,26,03,02,9.40
2012,04,26,03,03,9.40
2012,04,26,03,05,9.40
2012,04,26,03,06,9.40
2012,04,26,03,07,9.40
2012,04,26,03,08,9.40
2012,04,26,03,10,9.40
2012,04,26,03,11,9.40
2012,04,26,03,12,9.40
2012,04,26,03,13,9.40
2012,04,26,03,15,9.40
2012,04,26,03,16,9.40
2012,04,26,03,17,9.40
2012,04,26,03,18,9.40
2012,04,26,03,20,9.40
2012,04,26,03,21,9.40
2012,04,26,03,22,9.40
2012,04,26,03,23,9.40
2012,04,26,03,24,9.40
2012,04,26,03,26,9.40
2012,04,26,03,27,9.40
2012,04,26,03,28,9.40
2012,04,26,03,29,9.40
2012,04,26,03,31,9.50
2012,04,26,03,32,9.40
2012,04,26,03,33,9.40
2012,04,26,03,34,9.50
2012,04,26,03,36,9.50
2012,04,26,03,37,9.50
2012,04,26,03,38,9.50
2012,04,26,03,39,9.50
2012,04,26,03,40,9.50
2012,04,26,03,42,9.50
2012,04,26,03,43,9.50
2012,04,26,03,44,9.50
2012,04,26,03,45,9.50
2012,04,26,03,47,9.50
2012,04,26,03,48,9.50
2012,04,26,03,49,9.50
2012,04,26,03,50,9.50
2012,04,26,03,51,9.50
2012,04,26,03,53,9.50
2012,04,26,03,54,9.50
2012,04,26,03,55,9.60
2012,04,26,03,56,9.50
2012,04,26,03,58,9.60
2012,04,26,03,59,9.60
2012,04,26,04,00,9.60
2012,04,26,04,01,9.50
2012,04,26,04,03,9.50
2012,04,26,04,04,9.50
2012,04,26,04,05,9.50
2012,04,26,04,07,9.50
2012,04,26,04,08,9.50
2012,04,26,04,09,9.50
2012,04,26,04,10,9.50
2012,04,26,04,12,9.50
2012,04,26,04,13,9.50
2012,04,26,04,14,9.40
2012,04,26,04,15,9.40
2012,04,26,04,17,9.40
2012,04,26,04,18,9.40
2012,04,26,04,19,9.40
2012,04,26,04,20,9.40
2012,04,26,04,22,9.40
2012,04,26,04,23,9.30
2012,04,26,04,24,9.30
2012,04,26,04,25,9.30
2012,04,26,04,26,9.30
2012,04,26,04,27,9.30
2012,04,26,04,28,9.30
2012,04,26,04,29,9.30
2012,04,26,04,30,9.20
2012,04,26,04,32,9.30
2012,04,26,04,33,9.20
2012,04,26,04,34,9.20
2012,04,26,04,35,9.30
2012,04,26,04,37,9.30
2012,04,26,04,38,9.20
2012,04,26,04,39,9.20
2012,04,26,04,40,9.20
2012,04,26,04,42,9.20
2012,04,26,04,43,9.20
2012,04,26,04,44,9.20
2012,04,26,04,46,9.20
2012,04,26,04,48,9.20
2012,04,26,04,49,9.20
2012,04,26,04,50,9.20
2012,04,26,04,51,9.20
2012,04,26,04,53,9.20
2012,04,26,04,54,9.20
2012,04,26,04,55,9.20
2012,04,26,04,57,9.20
2012,04,26,04,58,9.30
2012,04,26,04,59,9.30
2012,04,26,05,01,9.30
2012,04,26,05,02,9.30
2012,04,26,05,03,9.40
2012,04,26,05,04,9.40
2012,04,26,05,06,9.40
2012,04,26,05,07,9.40
2012,04,26,05,08,9.50
2012,04,26,05,09,9.50
2012,04,26,05,10,9.50
2012,04,26,05,11,9.50
2012,04,26,05,12,9.60
2012,04,26,05,13,9.60
2012,04,26,05,14,9.60
2012,04,26,05,16,9.60
2012,04,26,05,17,9.60
2012,04,26,05,18,9.60
2012,04,26,05,19,9.60
2012,04,26,05,20,9.60
2012,04,26,05,21,9.60
2012,04,26,05,22,9.60
2012,04,26,05,23,9.60
2012,04,26,05,25,9.60
2012,04,26,05,26,9.60
2012,04,26,05,27,9.60
2012,04,26,05,28,9.60
2012,04,26,05,29,9.60
2012,04,26,05,31,9.60
2012,04,26,05,32,9.60
2012,04,26,05,33,9.60
2012,04,26,05,34,9.70
2012,04,26,05,36,9.70
2012,04,26,05,37,9.70
2012,04,26,05,38,9.70
2012,04,26,05,39,9.70
2012,04,26,05,41,9.70
2012,04,26,05,42,9.70
2012,04,26,05,43,9.70
2012,04,26,05,44,9.70
2012,04,26,05,45,9.70
2012,04,26,05,46,9.70
2012,04,26,05,47,9.70
2012,04,26,05,49,9.70
2012,04,26,05,50,9.70
2012,04,26,05,51,9.70
2012,04,26,05,52,9.70
2012,04,26,05,53,9.70
2012,04,26,05,55,9.70
2012,04,26,05,56,9.70
2012,04,26,05,57,9.60
2012,04,26,05,58,9.60
2012,04,26,06,00,9.60
2012,04,26,06,01,9.60
2012,04,26,06,02,9.60
2012,04,26,06,03,9.60
2012,04,26,06,05,9.60
2012,04,26,06,06,9.60
2012,04,26,06,07,9.50
2012,04,26,06,08,9.50
2012,04,26,06,10,9.50
2012,04,26,06,11,9.40
2012,04,26,06,12,9.40
2012,04,26,06,14,9.40
2012,04,26,06,15,9.40
2012,04,26,06,16,9.40
2012,04,26,06,17,9.40
2012,04,26,06,19,9.40
2012,04,26,06,20,9.40
2012,04,26,06,21,9.40
2012,04,26,06,23,9.40
2012,04,26,06,24,9.40
2012,04,26,06,25,9.40
2012,04,26,06,26,9.40
2012,04,26,06,27,9.40
2012,04,26,06,28,9.40
2012,04,26,06,29,9.40
2012,04,26,06,30,9.40
2012,04,26,06,31,9.40
2012,04,26,06,32,9.40
2012,04,26,06,33,9.30
2012,04,26,06,34,9.30
2012,04,26,06,35,9.30
2012,04,26,06,36,9.30
2012,04,26,06,37,9.30
2012,04,26,06,38,9.30
2012,04,26,06,39,9.30
2012,04,26,06,41,9.30
2012,04,26,06,42,9.30
2012,04,26,06,43,9.30
2012,04,26,06,44,9.30
2012,04,26,06,45,9.30
2012,04,26,06,46,9.30
2012,04,26,06,47,9.30
2012,04,26,06,48,9.30
2012,04,26,06,49,9.30
2012,04,26,06,50,9.20
2012,04,26,06,51,9.30
2012,04,26,06,52,9.20
2012,04,26,06,53,9.20
2012,04,26,06,54,9.20
2012,04,26,06,55,9.20
2012,04,26,06,57,9.20
2012,04,26,06,58,9.20
2012,04,26,06,59,9.20
2012,04,26,07,01,9.20
2012,04,26,07,02,9.20
2012,04,26,07,03,9.20
2012,04,26,07,04,9.20
2012,04,26,07,05,9.20
2012,04,26,07,06,9.20
2012,04,26,07,07,9.20
2012,04,26,07,08,9.20
2012,04,26,07,09,9.20
2012,04,26,07,10,9.20
2012,04,26,07,11,9.20
2012,04,26,07,12,9.20
2012,04,26,07,13,9.20
2012,04,26,07,15,9.20
2012,04,26,07,16,9.20
2012,04,26,07,17,9.30
2012,04,26,07,18,9.30
2012,04,26,07,19,9.30
2012,04,26,07,20,9.30
2012,04,26,07,21,9.30
2012,04,26,07,22,9.30
2012,04,26,07,23,9.30
2012,04,26,07,24,9.30
2012,04,26,07,25,9.30
2012,04,26,07,26,9.30
2012,04,26,07,27,9.30
2012,04,26,07,28,9.30
2012,04,26,07,29,9.30
2012,04,26,07,30,9.30
2012,04,26,07,31,9.40
2012,04,26,07,32,9.40
2012,04,26,07,33,9.40
2012,04,26,07,34,9.40
2012,04,26,07,35,9.40
2012,04,26,07,36,9.40
2012,04,26,07,37,9.40
2012,04,26,07,38,9.40
2012,04,26,07,39,9.40
2012,04,26,07,40,9.40
2012,04,26,07,41,9.40
2012,04,26,07,42,9.40
2012,04,26,07,43,9.40
2012,04,26,07,44,9.40
2012,04,26,07,45,9.40
2012,04,26,07,46,9.40
2012,04,26,07,47,9.40
2012,04,26,07,48,9.40
2012,04,26,07,49,9.40
2012,04,26,07,50,9.40
2012,04,26,07,51,9.40
2012,04,26,07,52,9.40
2012,04,26,07,53,9.40
2012,04,26,07,55,9.40
2012,04,26,07,56,9.40
2012,04,26,07,57,9.40
2012,04,26,07,58,9.40
2012,04,26,07,59,9.40
2012,04,26,08,01,9.40
2012,04,26,08,02,9.40
2012,04,26,08,03,9.40
2012,04,26,08,04,9.40
2012,04,26,08,05,9.40
2012,04,26,08,07,9.40
2012,04,26,08,08,9.40
2012,04,26,08,09,9.40
2012,04,26,08,10,9.40
2012,04,26,08,12,9.40
2012,04,26,08,13,9.40
2012,04,26,08,14,9.40
2012,04,26,08,15,9.40
2012,04,26,08,16,9.50
2012,04,26,08,17,9.50
2012,04,26,08,18,9.50
2012,04,26,08,19,9.50
2012,04,26,08,20,9.50
2012,04,26,08,22,9.60
2012,04,26,08,23,9.60
2012,04,26,08,24,9.60
2012,04,26,08,25,9.60
2012,04,26,08,27,9.60
2012,04,26,08,28,9.60
2012,04,26,08,29,9.60
2012,04,26,08,30,9.60
2012,04,26,08,31,9.60
2012,04,26,08,33,9.60
2012,04,26,08,34,9.60
2012,04,26,08,35,9.70
2012,04,26,08,36,9.70
2012,04,26,08,38,9.70
2012,04,26,08,39,9.70
2012,04,26,08,40,9.70
2012,04,26,08,41,9.70
2012,04,26,08,42,9.70
2012,04,26,08,43,9.70
2012,04,26,08,44,9.80
2012,04,26,08,45,9.80
2012,04,26,08,47,9.80
2012,04,26,08,48,9.80
2012,04,26,08,49,9.80
2012,04,26,08,50,9.80
2012,04,26,08,52,9.80
2012,04,26,08,53,9.80
2012,04,26,08,54,9.80
2012,04,26,08,55,9.90
2012,04,26,08,57,9.90
2012,04,26,08,58,9.90
2012,04,26,08,59,9.90
2012,04,26,09,00,9.90
2012,04,26,09,02,9.90
2012,04,26,09,03,10.00
2012,04,26,09,04,10.00
2012,04,26,09,05,10.10
2012,04,26,09,07,10.10
2012,04,26,09,08,10.10
2012,04,26,09,09,10.10
2012,04,26,09,10,10.10
2012,04,26,09,11,10.10
2012,04,26,09,12,10.10
2012,04,26,09,13,10.10
2012,04,26,09,14,10.10
2012,04,26,09,15,10.10
2012,04,26,09,17,10.10
2012,04,26,09,18,10.10
2012,04,26,09,19,10.10
2012,04,26,09,20,10.20
2012,04,26,09,21,10.10
2012,04,26,09,22,10.10
2012,04,26,09,23,10.10
2012,04,26,09,24,10.10
2012,04,26,09,25,10.10
2012,04,26,09,27,10.10
2012,04,26,09,28,10.10
2012,04,26,09,29,10.10
2012,04,26,09,30,10.20
2012,04,26,09,32,10.20
2012,04,26,09,33,10.20
2012,04,26,09,34,10.20
2012,04,26,09,36,10.20
2012,04,26,09,37,10.20
2012,04,26,09,38,10.20
2012,04,26,09,39,10.20
2012,04,26,09,41,10.20
2012,04,26,09,42,10.20
2012,04,26,09,43,10.20
2012,04,26,09,45,10.20
2012,04,26,09,46,10.20
2012,04,26,09,47,10.20
2012,04,26,09,48,10.20
2012,04,26,09,49,10.30
2012,04,26,09,51,10.30
2012,04,26,09,52,10.30
2012,04,26,09,53,10.20
2012,04,26,09,54,10.30
2012,04,26,09,56,10.30
2012,04,26,09,57,10.20
2012,04,26,09,58,10.20
2012,04,26,10,00,10.20
2012,04,26,10,01,10.20
2012,04,26,10,02,10.20
2012,04,26,10,03,10.20
2012,04,26,10,04,10.20
2012,04,26,10,06,10.20
2012,04,26,10,07,10.20
2012,04,26,10,08,10.20
2012,04,26,10,09,10.20
2012,04,26,10,11,10.20
2012,04,26,10,12,10.20
2012,04,26,10,13,10.20
2012,04,26,10,14,10.20
2012,04,26,10,16,10.20
2012,04,26,10,17,10.20
2012,04,26,10,18,10.20
2012,04,26,10,19,10.20
2012,04,26,10,20,10.20
2012,04,26,10,22,10.20
2012,04,26,10,23,10.20
2012,04,26,10,24,10.20
2012,04,26,10,25,10.20
2012,04,26,10,27,10.20
2012,04,26,10,28,10.20
2012,04,26,10,29,10.30
2012,04,26,10,30,10.30
2012,04,26,10,31,10.30
2012,04,26,10,32,10.30
2012,04,26,10,33,10.30
2012,04,26,10,34,10.30
2012,04,26,10,35,10.30
2012,04,26,10,36,10.30
2012,04,26,10,37,10.30
2012,04,26,10,38,10.30
2012,04,26,10,39,10.40
2012,04,26,10,40,10.40
2012,04,26,10,41,10.40
2012,04,26,10,43,10.40
2012,04,26,10,44,10.40
2012,04,26,10,45,10.50
2012,04,26,10,46,10.50
2012,04,26,10,48,10.60
2012,04,26,10,49,10.60
2012,04,26,10,50,10.60
2012,04,26,10,51,10.60
2012,04,26,10,52,10.70
2012,04,26,10,53,10.70
2012,04,26,10,54,10.80
2012,04,26,10,55,10.80
2012,04,26,10,56,10.80
2012,04,26,10,57,10.80
2012,04,26,10,58,10.80
2012,04,26,10,59,10.80
2012,04,26,11,00,10.90
2012,04,26,11,02,10.90
2012,04,26,11,03,10.90
2012,04,26,11,04,10.90
2012,04,26,11,05,10.90
2012,04,26,11,06,10.80
2012,04,26,11,07,10.80
2012,04,26,11,08,10.90
2012,04,26,11,09,10.90
2012,04,26,11,10,10.90
2012,04,26,11,12,10.90
2012,04,26,11,13,11.00
2012,04,26,11,14,11.10
2012,04,26,11,15,11.10
2012,04,26,11,16,11.20
2012,04,26,11,17,11.20
2012,04,26,11,18,11.20
2012,04,26,11,19,11.20
2012,04,26,11,20,11.20
2012,04,26,11,21,11.20
2012,04,26,11,22,11.20
2012,04,26,11,23,11.30
2012,04,26,11,24,11.40
2012,04,26,11,25,11.50
2012,04,26,11,27,11.60
2012,04,26,11,28,11.80
2012,04,26,11,29,11.90
2012,04,26,11,30,11.90
2012,04,26,11,32,12.00
2012,04,26,11,33,11.90
2012,04,26,11,34,11.90
2012,04,26,11,36,11.90
2012,04,26,11,37,11.80
2012,04,26,11,38,11.80
2012,04,26,11,39,11.80
2012,04,26,11,41,11.80
2012,04,26,11,42,11.80
2012,04,26,11,43,11.90
2012,04,26,11,44,11.90
2012,04,26,11,46,11.90
2012,04,26,11,47,11.80
2012,04,26,11,48,11.80
2012,04,26,11,49,11.80
2012,04,26,11,51,11.80
2012,04,26,11,52,11.80
2012,04,26,11,53,11.80
2012,04,26,11,54,11.80
2012,04,26,11,56,11.80
2012,04,26,11,57,11.90
2012,04,26,11,58,12.00
2012,04,26,12,00,12.10
2012,04,26,12,01,12.00
2012,04,26,12,02,12.00
2012,04,26,12,03,11.90
2012,04,26,12,04,11.90
2012,04,26,12,06,12.00
2012,04,26,12,07,12.10
2012,04,26,12,08,12.00
2012,04,26,12,09,12.00
2012,04,26,12,11,11.90
2012,04,26,12,12,11.90
2012,04,26,12,13,12.00
2012,04,26,12,14,12.10
2012,04,26,12,15,12.20
2012,04,26,12,17,12.30
2012,04,26,12,18,12.30
2012,04,26,12,19,12.30
2012,04,26,12,20,12.20
2012,04,26,12,22,12.20
2012,04,26,12,23,12.10
2012,04,26,12,24,12.10
2012,04,26,12,25,12.20
2012,04,26,12,26,12.20
2012,04,26,12,27,12.30
2012,04,26,12,28,12.30
2012,04,26,12,29,12.40
2012,04,26,12,30,12.40
2012,04,26,12,31,12.50
2012,04,26,12,32,12.60
2012,04,26,12,33,12.60
2012,04,26,12,34,12.70
2012,04,26,12,35,12.70
2012,04,26,12,36,12.70
2012,04,26,12,37,12.60
2012,04,26,12,38,12.40
2012,04,26,12,39,12.30
2012,04,26,12,40,12.30
2012,04,26,12,42,12.30
2012,04,26,12,43,12.20
2012,04,26,12,44,12.10
2012,04,26,12,45,12.10
2012,04,26,12,46,12.00
2012,04,26,12,47,12.00
2012,04,26,12,48,11.90
2012,04,26,12,49,11.90
2012,04,26,12,50,11.90
2012,04,26,12,51,11.90
2012,04,26,12,52,12.00
2012,04,26,12,53,12.10
2012,04,26,12,54,12.10
2012,04,26,12,55,12.10
2012,04,26,12,56,12.10
2012,04,26,12,58,12.10
2012,04,26,12,59,12.10
2012,04,26,13,00,12.20
2012,04,26,13,01,12.20
2012,04,26,13,02,12.20
2012,04,26,13,04,12.10
2012,04,26,13,05,12.10
2012,04,26,13,06,12.20
2012,04,26,13,07,12.20
2012,04,26,13,08,12.20
2012,04,26,13,09,12.20
2012,04,26,13,10,12.20
2012,04,26,13,11,12.20
2012,04,26,13,12,12.20
2012,04,26,13,13,12.30
2012,04,26,13,14,12.30
2012,04,26,13,15,12.40
2012,04,26,13,16,12.40
2012,04,26,13,17,12.30
2012,04,26,13,18,12.30
2012,04,26,13,19,12.30
2012,04,26,13,20,12.30
2012,04,26,13,21,12.30
2012,04,26,13,22,12.40
2012,04,26,13,23,12.50
2012,04,26,13,25,12.50
2012,04,26,13,26,12.70
2012,04,26,13,27,12.70
2012,04,26,13,28,12.80
2012,04,26,13,30,12.80
2012,04,26,13,31,12.70
2012,04,26,13,32,12.70
2012,04,26,13,33,12.70
2012,04,26,13,34,12.70
2012,04,26,13,35,12.70
2012,04,26,13,36,12.60
2012,04,26,13,37,12.60
2012,04,26,13,38,12.50
2012,04,26,13,39,12.50
2012,04,26,13,40,12.50
2012,04,26,13,41,12.50
2012,04,26,13,42,12.50
2012,04,26,13,43,12.50
2012,04,26,13,44,12.60
2012,04,26,13,45,12.60
2012,04,26,13,46,12.60
2012,04,26,13,47,12.80
2012,04,26,13,48,12.90
2012,04,26,13,50,12.80
2012,04,26,13,51,12.70
2012,04,26,13,52,12.70
2012,04,26,13,53,12.70
2012,04,26,13,54,12.70
2012,04,26,13,56,12.70
2012,04,26,13,57,12.80
2012,04,26,13,58,12.80
2012,04,26,13,59,12.80
2012,04,26,14,00,12.70
2012,04,26,14,02,12.70
2012,04,26,14,03,12.70
2012,04,26,14,04,12.70
2012,04,26,14,05,12.80
2012,04,26,14,07,12.80
2012,04,26,14,08,12.80
2012,04,26,14,09,12.80
2012,04,26,14,10,12.70
2012,04,26,14,11,12.70
2012,04,26,14,12,12.70
2012,04,26,14,13,12.70
2012,04,26,14,14,12.80
2012,04,26,14,15,12.80
2012,04,26,14,16,12.80
2012,04,26,14,18,12.80
2012,04,26,14,19,12.80
2012,04,26,14,20,12.80
2012,04,26,14,21,12.80
2012,04,26,14,23,12.80
2012,04,26,14,24,12.80
2012,04,26,14,25,12.80
2012,04,26,14,26,12.90
2012,04,26,14,27,12.90
2012,04,26,14,29,13.00
2012,04,26,14,30,13.10
2012,04,26,14,31,13.10
2012,04,26,14,32,13.20
2012,04,26,14,33,13.10
2012,04,26,14,35,13.10
2012,04,26,14,36,13.00
2012,04,26,14,37,12.90
2012,04,26,14,39,12.80
2012,04,26,14,40,12.70
2012,04,26,14,41,12.60
2012,04,26,14,42,12.60
2012,04,26,14,43,12.60
2012,04,26,14,44,12.70
2012,04,26,14,45,12.70
2012,04,26,14,46,12.80
2012,04,26,14,47,12.80
2012,04,26,14,48,12.80
2012,04,26,14,49,12.80
2012,04,26,14,50,12.80
2012,04,26,14,51,12.80
2012,04,26,14,52,12.90
2012,04,26,14,53,12.90
2012,04,26,14,54,12.90
2012,04,26,14,55,12.90
2012,04,26,14,56,12.90
2012,04,26,14,57,12.90
2012,04,26,14,58,12.90
2012,04,26,14,59,13.10
2012,04,26,15,00,13.20
2012,04,26,15,01,13.20
2012,04,26,15,02,13.10
2012,04,26,15,03,13.00
2012,04,26,15,04,12.90
2012,04,26,15,05,12.90
2012,04,26,15,06,12.90
2012,04,26,15,07,12.90
2012,04,26,15,08,12.90
2012,04,26,15,09,12.90
2012,04,26,15,10,12.90
2012,04,26,15,11,13.00
2012,04,26,15,12,13.10
2012,04,26,15,13,13.10
2012,04,26,15,15,13.10
2012,04,26,15,16,13.20
2012,04,26,15,17,13.10
2012,04,26,15,18,13.00
2012,04,26,15,20,12.90
2012,04,26,15,21,12.80
2012,04,26,15,22,12.80
2012,04,26,15,23,12.80
2012,04,26,15,24,12.80
2012,04,26,15,25,12.80
2012,04,26,15,26,12.80
2012,04,26,15,27,12.80
2012,04,26,15,28,12.90
2012,04,26,15,29,12.90
2012,04,26,15,30,12.90
2012,04,26,15,31,12.90
2012,04,26,15,33,12.90
2012,04,26,15,34,12.80
2012,04,26,15,35,12.80
2012,04,26,15,36,12.80
2012,04,26,15,37,12.80
2012,04,26,15,38,12.80
2012,04,26,15,39,12.90
2012,04,26,15,40,12.90
2012,04,26,15,41,13.10
2012,04,26,15,42,13.10
2012,04,26,15,43,13.30
2012,04,26,15,44,13.30
2012,04,26,15,45,13.40
2012,04,26,15,47,13.40
2012,04,26,15,48,13.40
2012,04,26,15,49,13.40
2012,04,26,15,50,13.40
2012,04,26,15,51,13.40
2012,04,26,15,52,13.30
2012,04,26,15,53,13.30
2012,04,26,15,54,13.30
2012,04,26,15,55,13.30
2012,04,26,15,56,13.40
2012,04,26,15,57,13.40
2012,04,26,15,58,13.40
2012,04,26,15,59,13.50
2012,04,26,16,00,13.50
2012,04,26,16,01,13.50
2012,04,26,16,02,13.40
2012,04,26,16,03,13.40
2012,04,26,16,04,13.40
2012,04,26,16,05,13.40
2012,04,26,16,06,13.30
2012,04,26,16,07,13.30
2012,04,26,16,08,13.20
2012,04,26,16,09,13.20
2012,04,26,16,10,13.20
2012,04,26,16,11,13.20
2012,04,26,16,12,13.20
2012,04,26,16,14,13.20
2012,04,26,16,15,13.30
2012,04,26,16,16,13.30
2012,04,26,16,17,13.30
2012,04,26,16,19,13.30
2012,04,26,16,20,13.30
2012,04,26,16,21,13.30
2012,04,26,16,22,13.30
2012,04,26,16,24,13.40
2012,04,26,16,25,13.50
2012,04,26,16,26,13.50
2012,04,26,16,27,13.50
2012,04,26,16,28,13.60
2012,04,26,16,29,13.40
2012,04,26,16,30,13.30
2012,04,26,16,31,13.40
2012,04,26,16,33,13.40
2012,04,26,16,34,13.50
2012,04,26,16,35,13.50
2012,04,26,16,37,13.60
2012,04,26,16,38,13.50
2012,04,26,16,39,13.50
2012,04,26,16,41,13.50
2012,04,26,16,42,13.40
2012,04,26,16,43,13.30
2012,04,26,16,44,13.30
2012,04,26,16,46,13.30
2012,04,26,16,47,13.40
2012,04,26,16,48,13.40
2012,04,26,16,49,13.40
2012,04,26,16,51,13.50
2012,04,26,16,52,13.60
2012,04,26,16,53,13.60
2012,04,26,16,54,13.60
2012,04,26,16,56,13.60
2012,04,26,16,57,13.50
2012,04,26,16,58,13.50
2012,04,26,16,59,13.60
2012,04,26,17,00,13.60
2012,04,26,17,02,13.70
2012,04,26,17,03,13.70
2012,04,26,17,04,13.70
2012,04,26,17,05,13.70
2012,04,26,17,07,13.70
2012,04,26,17,08,13.60
2012,04,26,17,09,13.70
2012,04,26,17,10,13.70
2012,04,26,17,12,13.80
2012,04,26,17,13,13.80
2012,04,26,17,14,13.80
2012,04,26,17,16,13.70
2012,04,26,17,17,13.70
2012,04,26,17,18,13.70
2012,04,26,17,19,13.60
2012,04,26,17,20,13.60
2012,04,26,17,22,13.70
2012,04,26,17,23,13.70
2012,04,26,17,24,13.70
2012,04,26,17,26,13.70
2012,04,26,17,27,13.70
2012,04,26,17,28,13.80
2012,04,26,17,29,13.70
2012,04,26,17,31,13.70
2012,04,26,17,32,13.70
2012,04,26,17,33,13.80
2012,04,26,17,34,13.70
2012,04,26,17,35,13.70
2012,04,26,17,36,13.70
2012,04,26,17,37,13.70
2012,04,26,17,38,13.70
2012,04,26,17,40,13.70
2012,04,26,17,41,13.80
2012,04,26,17,42,13.90
2012,04,26,17,43,13.90
2012,04,26,17,45,14.00
2012,04,26,17,46,13.80
2012,04,26,17,47,13.80
2012,04,26,17,48,13.80
2012,04,26,17,50,13.80
2012,04,26,17,51,13.80
2012,04,26,17,52,13.70
2012,04,26,17,53,13.60
2012,04,26,17,54,13.60
2012,04,26,17,56,13.60
2012,04,26,17,57,13.50
2012,04,26,17,58,13.40
2012,04,26,17,59,13.30
2012,04,26,18,01,13.30
2012,04,26,18,02,13.30
2012,04,26,18,03,13.30
2012,04,26,18,04,13.30
2012,04,26,18,05,13.30
2012,04,26,18,06,13.30
2012,04,26,18,07,13.40
2012,04,26,18,08,13.40
2012,04,26,18,09,13.30
2012,04,26,18,11,13.30
2012,04,26,18,12,13.20
2012,04,26,18,13,13.10
2012,04,26,18,14,13.00
2012,04,26,18,15,12.90
2012,04,26,18,16,12.80
2012,04,26,18,17,12.70
2012,04,26,18,18,12.60
2012,04,26,18,20,12.50
2012,04,26,18,21,12.40
2012,04,26,18,22,12.40
2012,04,26,18,23,12.30
2012,04,26,18,24,12.30
2012,04,26,18,26,12.30
2012,04,26,18,27,12.30
2012,04,26,18,28,12.20
2012,04,26,18,29,12.20
2012,04,26,18,30,12.10
2012,04,26,18,31,12.10
2012,04,26,18,32,12.10
2012,04,26,18,33,12.10
2012,04,26,18,34,12.00
2012,04,26,18,36,12.00
2012,04,26,18,37,11.90
2012,04,26,18,38,11.90
2012,04,26,18,39,11.90
2012,04,26,18,41,11.90
2012,04,26,18,42,11.80
2012,04,26,18,43,11.80
2012,04,26,18,44,11.80
2012,04,26,18,45,11.80
2012,04,26,18,46,11.80
2012,04,26,18,47,11.70
2012,04,26,18,48,11.70
2012,04,26,18,50,11.70
2012,04,26,18,51,11.70
2012,04,26,18,52,11.70
2012,04,26,18,53,11.70
2012,04,26,18,55,11.70
2012,04,26,18,56,11.70
2012,04,26,18,57,11.70
2012,04,26,18,59,11.60
2012,04,26,19,00,11.60
2012,04,26,19,01,11.60
2012,04,26,19,02,11.60
2012,04,26,19,03,11.60
2012,04,26,19,04,11.60
2012,04,26,19,05,11.50
2012,04,26,19,06,11.40
2012,04,26,19,07,11.40
2012,04,26,19,08,11.40
2012,04,26,19,09,11.40
2012,04,26,19,10,11.40
2012,04,26,19,11,11.40
2012,04,26,19,12,11.30
2012,04,26,19,14,11.30
2012,04,26,19,15,11.30
2012,04,26,19,16,11.30
2012,04,26,19,17,11.30
2012,04,26,19,19,11.30
2012,04,26,19,20,11.20
2012,04,26,19,21,11.20
2012,04,26,19,22,11.10
2012,04,26,19,24,11.10
2012,04,26,19,25,11.00
2012,04,26,19,26,11.00
2012,04,26,19,27,11.00
2012,04,26,19,28,11.00
2012,04,26,19,29,11.00
2012,04,26,19,30,11.00
2012,04,26,19,32,11.00
2012,04,26,19,33,11.10
2012,04,26,19,34,11.10
2012,04,26,19,35,11.10
2012,04,26,19,36,11.10
2012,04,26,19,38,11.10
2012,04,26,19,39,11.10
2012,04,26,19,40,11.10
2012,04,26,19,41,11.00
2012,04,26,19,42,11.00
2012,04,26,19,43,11.00
2012,04,26,19,44,10.90
2012,04,26,19,45,10.90
2012,04,26,19,46,10.80
2012,04,26,19,48,10.80
2012,04,26,19,49,10.70
2012,04,26,19,50,10.70
2012,04,26,19,51,10.70
2012,04,26,19,53,10.60
2012,04,26,19,54,10.60
2012,04,26,19,55,10.50
2012,04,26,19,56,10.50
2012,04,26,19,57,10.40
2012,04,26,19,58,10.40
2012,04,26,19,59,10.40
2012,04,26,20,00,10.40
2012,04,26,20,02,10.40
2012,04,26,20,03,10.40
2012,04,26,20,04,10.40
2012,04,26,20,05,10.40
2012,04,26,20,07,10.40
2012,04,26,20,08,10.30
2012,04,26,20,09,10.30
2012,04,26,20,10,10.30
2012,04,26,20,12,10.30
2012,04,26,20,13,10.20
2012,04,26,20,14,10.20
2012,04,26,20,15,10.20
2012,04,26,20,17,10.20
2012,04,26,20,18,10.20
2012,04,26,20,19,10.20
2012,04,26,20,20,10.10
2012,04,26,20,21,10.10
2012,04,26,20,23,10.10
2012,04,26,20,24,10.10
2012,04,26,20,25,10.00
2012,04,26,20,26,10.00
2012,04,26,20,27,10.00
2012,04,26,20,29,9.90
2012,04,26,20,30,9.90
2012,04,26,20,31,9.90
2012,04,26,20,32,9.90
2012,04,26,20,34,9.90
2012,04,26,20,35,9.80
2012,04,26,20,36,9.80